Weather in Podberezye

Russia / Pskov Oblast     56°55′27″N   30°37′55″E
temp.,
°C
wind,
m/s
gust,
m/s
humid.,
%
clouds,
%
prec.,
mm/h
press.,
hPa
HPBL,
m
29 january, sat
sat2900:000nw4798100 0.4 1000485
03:00−3nnw51196100 1.6 1004557
06:00−4nnw51295100 0.9 1006641
09:00−6nw4109497 1.1 1009437
12:00−5nw379291 0.1 1009362
15:00−3w3585100 0.1 1009662
18:00−4s2689100 0.0 1006233
21:00−6s51292100 0.0 1002437
30 january, sun
sun3000:00−5s61784100 0.0 996613
03:00−4sse81994100 1.2 988925
06:00−3s81794100 3.2 983993
09:00−2s71593100 4.0 981825
12:00−1sse51295100 0.3 981561
15:000sse4997100 0.9 982651
18:000sse3994100 0.1 984414
21:00−1se389754 0.4 985293
31 january, mon
mon3100:00−8ese129854 0.0 98732
03:00−3ese1398100 0.4 988135
06:00−3ne1198100 0.3 98850
09:00−3ne1298100 0.3 98962
12:00−2ne239383 0.0 990179
15:00−2n2392100 0.1 990290
18:00−3n1398100 0.1 99171
21:00−5nw129897 0.1 99243
1 february, tue
tue100:00−6wnw249889 0.1 99384
03:00−6nw2797100 0.2 993199
06:00−6wnw389689 0.2 994303
09:00−8wnw289697 0.3 996252
12:00−6w369199 0.1 997408
15:00−5wsw369098 0.1 997627
18:00−7wsw389498 0.1 998366
21:00−8sw279569 0.2 998167
2 february, wed
wed200:00−8s2796100 0.1 997206
03:00−7ssw389597 0.3 997284
06:00−7ssw3796100 0.1 997261
09:00−9s2698100 0.1 998124
12:00−6sw2494100 0.0 998215
15:00−4wsw248995 0.1 999539
18:00−10wnw119866 0.0 100110
21:00−12w119982 0.1 10039